[[{"header":{"parameterUnit":"m.s-1","parameterCategory":1,"la1":30.2991,"la2":30.254,"lo1":-89.0895,"lo2":-89.0444,"dy":0.0017,"dx":0.0017,"nx":28,"ny":28,"refTime":"2024-05-09T09:00:00:Z","depth":0,"parameterNumber":2,"parameterNumberName":"U-component_of_WINDS"},"data":[0,0,0,0,0,0,0,0,0,0,0,0,0,0,0,0,0,0,0,0,0,0,0,0,0,0,0,0,0,0,0,0,0,0,0,0,0,0,0,0,0,0,0,0,0,0,0,0,0,0,0,0,0,0,0,0,0,0,-0.2202,-0.2202,0,-0.2141,-0.214,-0.2139,-0.2108,-0.2108,-0.2108,-0.2108,-0.2045,-0.2043,-0.2042,0,0,0,0,0,0,0,0,0,0,0,0,0,-0.2293,-0.2291,-0.2202,-0.2202,-0.2201,-0.2141,-0.214,-0.2139,-0.2108,-0.2108,-0.2108,-0.2108,-0.2046,-0.2044,-0.2042,0,0,0,0,0,0,0,0,0,0,0,0,0,-0.2244,-0.2291,-0.2202,-0.2178,-0.2175,-0.2141,-0.214,-0.2139,-0.2108,-0.2108,-0.2108,-0.2108,-0.2046,-0.2044,-0.2041,-0.2026,0,0,-0.2034,-0.2033,0,0,0,0,0,0,0,0,-0.2247,-0.2241,-0.2183,-0.218,-0.2177,-0.2132,-0.2149,-0.2101,-0.2108,-0.2134,-0.2108,-0.2108,-0.2074,-0.2069,-0.2058,-0.2023,-0.2021,-0.2033,-0.2032,-0.2031,-0.203,0,0,0,0,0,0,0,-0.2251,-0.2244,-0.2178,-0.2182,-0.2178,-0.217,-0.2163,-0.214,-0.2105,-0.2132,-0.2129,-0.2122,-0.2072,-0.206,-0.2056,-0.202,-0.2034,-0.2031,-0.203,-0.2029,-0.197,-0.197,0,0,0,0,0,0,-0.2258,-0.2247,-0.218,-0.2176,-0.2213,-0.2169,-0.2161,-0.2147,-0.2105,-0.2099,-0.2123,-0.2121,-0.2065,-0.2059,-0.2054,-0.2033,-0.2031,-0.2029,-0.2027,-0.197,-0.197,-0.197,0,0,0,0,0,0,-0.226,-0.2252,-0.2182,-0.2211,-0.2201,-0.2167,-0.2151,-0.2145,-0.2133,-0.2098,-0.2092,-0.2116,-0.2064,-0.2057,-0.2033,-0.2031,-0.2027,-0.2025,-0.197,-0.197,-0.197,-0.1993,0,0,0,0,0,0,-0.2263,-0.2253,-0.2247,-0.2211,-0.22,-0.2163,-0.2151,-0.2144,-0.2129,-0.2127,-0.2091,-0.2085,-0.2064,-0.2037,-0.2031,-0.2027,-0.2023,-0.197,-0.197,-0.197,-0.1992,-0.1993,-0.1995,0,0,0,0,0,-0.2266,-0.2256,-0.2247,-0.2239,-0.2192,-0.2163,-0.2157,-0.2133,-0.2129,-0.2123,-0.21,-0.2086,-0.2032,-0.2035,-0.2028,-0.2023,-0.197,-0.197,-0.197,-0.1991,-0.1993,-0.1995,0,0,0,0,0,0,-0.2293,-0.2251,-0.224,-0.2219,-0.2195,-0.2158,-0.2149,-0.2136,-0.2112,-0.2111,-0.2082,-0.2075,-0.2053,-0.2036,-0.204,-0.2006,-0.2,-0.1998,-0.2019,-0.202,-0.2021,-0.2026,-0.2021,0,0,0,0,0,-0.2297,-0.2277,-0.2241,-0.2225,-0.2214,-0.2184,-0.217,-0.2154,-0.2128,-0.2118,-0.2094,-0.2069,-0.2046,-0.2032,-0.201,-0.1989,-0.1981,-0.1983,-0.1984,-0.1985,-0.1984,-0.1972,-0.1972,-0.1969,-0.1969,-0.1969,0,0,-0.2303,-0.2278,-0.2267,-0.223,-0.221,-0.219,-0.2176,-0.2155,-0.214,-0.2115,-0.2091,-0.2072,-0.2043,-0.2021,-0.201,-0.2005,-0.1983,-0.1985,-0.1986,-0.1984,-0.1972,-0.1972,-0.1972,-0.1969,-0.1969,-0.1969,0,0,-0.2306,-0.2285,-0.2269,-0.2249,-0.2218,-0.2198,-0.2195,-0.216,-0.2147,-0.2122,-0.2103,-0.2084,-0.2046,-0.2026,-0.2011,-0.2005,-0.1992,-0.1999,-0.2006,-0.1994,-0.1994,-0.1994,-0.1992,-0.1992,-0.1998,-0.1998,-0.1998,0,-0.2318,-0.2288,-0.2263,-0.2244,-0.2228,-0.2204,-0.2188,-0.2169,-0.2133,-0.2122,-0.2118,-0.207,-0.2048,-0.2021,-0.202,-0.2008,-0.2003,-0.2003,-0.1996,-0.1996,-0.1996,-0.1994,-0.1993,-0.1999,-0.1999,-0.1999,-0.1999,0,-0.2305,-0.2284,-0.2275,-0.2241,-0.2224,-0.2206,-0.2178,-0.2164,-0.2149,-0.213,-0.2105,-0.2078,-0.205,-0.2042,-0.2027,-0.2013,-0.2011,-0.2002,-0.1994,-0.1998,-0.1995,-0.1994,-0.2001,-0.2,-0.2,-0.2,0,0,-0.2323,-0.2275,-0.2272,-0.2256,-0.222,-0.2203,-0.2185,-0.2157,-0.2145,-0.2121,-0.2104,-0.2073,-0.2064,-0.2047,-0.2029,-0.2019,-0.2017,-0.2011,-0.201,-0.2013,-0.1999,-0.2006,-0.2006,-0.2008,-0.2007,-0.2007,-0.2002,0,-0.232,-0.2286,-0.2263,-0.2237,-0.2218,-0.2195,-0.2178,-0.2155,-0.2136,-0.2116,-0.2095,-0.2073,-0.2064,-0.2053,-0.2042,-0.202,-0.2014,-0.202,-0.1992,-0.1991,-0.2,-0.2004,-0.2012,-0.2008,-0.2,-0.2,-0.2,0,-0.2313,-0.2289,-0.2262,-0.2228,-0.2219,-0.2205,-0.2178,-0.2159,-0.2132,-0.2119,-0.21,-0.2082,-0.2061,-0.2056,-0.2027,-0.2031,-0.2018,-0.2006,-0.2005,-0.2001,-0.1996,-0.2001,-0.2006,-0.2006,-0.1998,-0.1998,-0.1999,0,-0.2329,-0.229,-0.2269,-0.2256,-0.2216,-0.2207,-0.219,-0.2162,-0.2147,-0.2123,-0.2113,-0.2086,-0.2072,-0.2052,-0.2028,-0.2026,-0.2001,-0.1994,-0.199,-0.1991,-0.1986,-0.1986,-0.1989,-0.1978,-0.1978,-0.1978,-0.1978,0,-0.2329,-0.2313,-0.2276,-0.2263,-0.2244,-0.2217,-0.22,-0.2181,-0.2156,-0.2139,-0.2117,-0.2102,-0.2071,-0.2051,-0.2032,-0.201,-0.2004,-0.1993,-0.1988,-0.1995,-0.1996,-0.1986,-0.1986,-0.1977,-0.1977,-0.1977,-0.1977,0,-0.2344,-0.2318,-0.2293,-0.2257,-0.2248,-0.2236,-0.2205,-0.2192,-0.2172,-0.215,-0.2143,-0.2112,-0.2088,-0.2061,-0.2028,-0.2015,-0.1995,-0.1988,-0.2004,-0.2002,-0.1999,-0.2,-0.1995,-0.1993,-0.1984,-0.1984,-0.1984,0,-0.2345,-0.2333,-0.2296,-0.2282,-0.2266,-0.2245,-0.2229,-0.2202,-0.2187,-0.2154,-0.2145,-0.2119,-0.2097,-0.2059,-0.2033,-0.2008,-0.2,-0.2,-0.1996,-0.2003,-0.2,-0.2001,-0.1999,-0.2001,-0.2002,-0.2002,-0.2002,0,-0.2351,-0.2339,-0.2317,-0.2291,-0.2273,-0.2251,-0.2228,-0.2218,-0.2187,-0.217,-0.2145,-0.2128,-0.2094,-0.2069,-0.204,-0.2022,-0.2007,-0.2003,-0.2001,-0.2008,-0.2018,-0.2013,-0.2008,-0.2004,-0.2004,-0.2003,-0.2003,-0.2003,-0.2359,-0.2347,-0.2319,-0.2295,-0.2275,-0.2254,-0.224,-0.2218,-0.2196,-0.2167,-0.2152,-0.2127,-0.2099,-0.2059,-0.2042,-0.2022,-0.2017,-0.2014,-0.2013,-0.2013,-0.2015,-0.2021,-0.2017,-0.2017,-0.2016,-0.2016,-0.2016,0,-0.2364,-0.2345,-0.2323,-0.2292,-0.2273,-0.226,-0.2234,-0.2219,-0.2198,-0.2173,-0.2152,-0.2123,-0.2098,-0.207,-0.2044,-0.2033,-0.2025,-0.2027,-0.2028,-0.2024,-0.202,-0.2025,-0.2034,-0.2034,-0.2034,-0.2034,-0.2034,-0.2034,-0.2364,-0.2343,-0.2327,-0.2295,-0.2276,-0.2251,-0.2237,-0.2218,-0.2198,-0.2167,-0.2146,-0.2128,-0.2102,-0.2074,-0.205,-0.2043,-0.2034,-0.2038,-0.2028,-0.2025,-0.2024,-0.2023,-0.2027,-0.2036,-0.2036,-0.2033,-0.2033,-0.2033]},{"header":{"parameterUnit":"m.s-1","parameterCategory":1,"la1":30.2991,"la2":30.254,"lo1":-89.0895,"lo2":-89.0444,"dy":0.0017,"dx":0.0017,"nx":28,"ny":28,"refTime":"2024-05-09T09:00:00:Z","depth":0,"parameterNumber":3,"parameterNumberName":"V-component_of_WINDS"},"data":[0,0,0,0,0,0,0,0,0,0,0,0,0,0,0,0,0,0,0,0,0,0,0,0,0,0,0,0,0,0,0,0,0,0,0,0,0,0,0,0,0,0,0,0,0,0,0,0,0,0,0,0,0,0,0,0,0,0,3.5096,3.5097,0,3.52,3.5202,3.5203,3.5229,3.5229,3.5228,3.5227,3.5327,3.5331,3.5334,0,0,0,0,0,0,0,0,0,0,0,0,0,3.4913,3.4916,3.5096,3.5097,3.5099,3.52,3.5202,3.5203,3.5229,3.5229,3.5228,3.5227,3.5326,3.533,3.5334,0,0,0,0,0,0,0,0,0,0,0,0,0,3.5002,3.4917,3.5096,3.5124,3.5128,3.52,3.5202,3.5204,3.523,3.5229,3.5228,3.5227,3.5325,3.533,3.5335,3.5384,0,0,3.5349,3.5352,0,0,0,0,0,0,0,0,3.4997,3.5009,3.5119,3.5122,3.5127,3.5201,3.5174,3.5264,3.523,3.5191,3.5227,3.5226,3.5286,3.5294,3.5315,3.5388,3.5393,3.535,3.5353,3.5355,3.5356,0,0,0,0,0,0,0,3.4991,3.5004,3.5137,3.512,3.5125,3.513,3.5141,3.5191,3.5242,3.5194,3.5196,3.5209,3.5288,3.531,3.5318,3.5394,3.535,3.5354,3.5357,3.5359,3.5513,3.5514,0,0,0,0,0,0,3.4981,3.4999,3.5134,3.514,3.5058,3.5134,3.5147,3.5178,3.5242,3.5251,3.5209,3.521,3.5303,3.5312,3.5321,3.5384,3.5355,3.5359,3.5362,3.5512,3.5513,3.5515,0,0,0,0,0,0,3.4977,3.4992,3.513,3.507,3.5088,3.5138,3.5173,3.5181,3.5204,3.5253,3.5262,3.5224,3.5302,3.5314,3.5369,3.5387,3.5362,3.5366,3.5511,3.5512,3.5514,3.5508,0,0,0,0,0,0,3.4971,3.4991,3.5012,3.5071,3.5091,3.5177,3.5174,3.5183,3.5213,3.5214,3.5269,3.5277,3.5302,3.5361,3.5373,3.5394,3.537,3.5509,3.5511,3.5514,3.5507,3.551,3.5512,0,0,0,0,0,3.4965,3.5004,3.5013,3.5029,3.5119,3.5178,3.519,3.522,3.5214,3.5235,3.5266,3.5275,3.5383,3.5367,3.5381,3.5402,3.5508,3.5511,3.5513,3.5506,3.5509,3.5512,0,0,0,0,0,0,3.4943,3.5012,3.5022,3.5083,3.5125,3.5183,3.5209,3.5222,3.5265,3.5264,3.5297,3.5309,3.5361,3.5387,3.5367,3.5454,3.5445,3.5451,3.5435,3.5439,3.5441,3.5434,3.5374,0,0,0,0,0,3.4946,3.4991,3.5048,3.5095,3.5116,3.5159,3.5186,3.5206,3.525,3.5267,3.5303,3.5343,3.5386,3.5414,3.5456,3.5511,3.5523,3.5533,3.5535,3.5537,3.5541,3.5572,3.5577,3.5523,3.5523,3.5523,0,0,3.4951,3.4994,3.502,3.5092,3.5127,3.5171,3.5174,3.522,3.5252,3.5273,3.5328,3.5355,3.5402,3.5457,3.5483,3.548,3.5559,3.554,3.5541,3.5545,3.5575,3.558,3.5585,3.5525,3.5525,3.5525,0,0,3.4983,3.5021,3.5065,3.5101,3.5155,3.5183,3.5193,3.525,3.527,3.5325,3.5342,3.538,3.5453,3.5486,3.5513,3.5558,3.5568,3.557,3.5583,3.5613,3.5617,3.5621,3.5637,3.5643,3.5575,3.5575,3.5575,0,3.4982,3.5052,3.5085,3.5132,3.5163,3.5186,3.523,3.5262,3.5325,3.5345,3.5342,3.5435,3.5468,3.5532,3.5543,3.5563,3.5575,3.5564,3.5614,3.5619,3.5623,3.5639,3.5645,3.5575,3.5575,3.5575,3.5575,0,3.5048,3.5096,3.5124,3.5189,3.5222,3.5267,3.5306,3.5335,3.5352,3.538,3.5436,3.5477,3.5528,3.5544,3.556,3.561,3.5606,3.5608,3.5601,3.5627,3.5643,3.5649,3.5575,3.5575,3.5575,3.5575,0,0,3.507,3.5153,3.5163,3.5193,3.5254,3.529,3.5335,3.5388,3.5413,3.5455,3.5493,3.5555,3.5558,3.5587,3.5607,3.5633,3.5667,3.5632,3.5633,3.5637,3.5724,3.5722,3.5729,3.5673,3.5675,3.5676,3.572,0,3.511,3.5195,3.5226,3.5294,3.5338,3.5361,3.54,3.5441,3.5468,3.5508,3.5537,3.5581,3.558,3.5599,3.5626,3.5657,3.5684,3.5654,3.5708,3.5709,3.5696,3.5737,3.5736,3.5776,3.5726,3.5727,3.5728,0,3.5168,3.5215,3.5288,3.5345,3.5364,3.5399,3.545,3.5488,3.5534,3.5552,3.5586,3.5604,3.565,3.564,3.5703,3.5682,3.5706,3.5724,3.5726,3.5733,3.572,3.5745,3.5789,3.5795,3.5738,3.5737,3.5736,0,3.5177,3.5258,3.5313,3.5337,3.5404,3.5428,3.5457,3.5502,3.5532,3.5575,3.5595,3.5642,3.5668,3.5703,3.5733,3.5723,3.5793,3.5785,3.5808,3.5808,3.5822,3.5821,3.5872,3.5837,3.5837,3.5837,3.5837,0,3.5219,3.5263,3.5318,3.5351,3.5401,3.5436,3.5483,3.5513,3.5553,3.5591,3.5613,3.5647,3.5685,3.5724,3.5747,3.5796,3.5807,3.5822,3.5827,3.582,3.5818,3.5836,3.5834,3.5838,3.5838,3.5838,3.5837,0,3.5238,3.5276,3.5338,3.5397,3.5413,3.5446,3.5496,3.5528,3.5557,3.5605,3.5618,3.5662,3.5709,3.5743,3.5803,3.5818,3.5871,3.5876,3.5856,3.5859,3.5881,3.5878,3.5944,3.5955,3.5913,3.5913,3.5913,0,3.5262,3.5297,3.5361,3.539,3.5419,3.5464,3.5495,3.5531,3.5562,3.5617,3.5643,3.5692,3.5733,3.5807,3.5843,3.5889,3.5896,3.5916,3.5902,3.5894,3.5896,3.5894,3.5898,3.5917,3.5918,3.5918,3.5918,0,3.5302,3.5319,3.5365,3.5418,3.5455,3.5497,3.5539,3.5561,3.5603,3.5636,3.5687,3.5719,3.5782,3.583,3.5879,3.5906,3.5919,3.5922,3.593,3.5923,3.5911,3.5918,3.5862,3.592,3.592,3.592,3.592,3.592,3.5324,3.5357,3.5407,3.5457,3.5493,3.5532,3.5566,3.56,3.5643,3.5699,3.5716,3.5768,3.5812,3.5881,3.5908,3.5948,3.5946,3.5958,3.596,3.5963,3.5963,3.5904,3.5957,3.5957,3.5957,3.5957,3.5957,0,3.5366,3.54,3.5445,3.5505,3.5544,3.5555,3.5603,3.5634,3.568,3.5722,3.5763,3.582,3.5867,3.5907,3.5955,3.5979,3.5986,3.599,3.5989,3.5995,3.5961,3.595,3.5984,3.5984,3.5984,3.5984,3.5984,3.5984,3.5392,3.5447,3.5471,3.5544,3.5577,3.563,3.5656,3.5692,3.5725,3.5789,3.5829,3.5856,3.5897,3.5948,3.5991,3.6001,3.6018,3.6021,3.6033,3.6,3.5997,3.5994,3.5984,3.6024,3.6025,3.6063,3.6064,3.6064]}]]